Probability
0 0 0 0 0 0 0 0 0 0 0 0 0 3 10 10 10 19 29 32 45 48 48 52 55 68 90 97 100 97 100 100 100 97 94 94 94 90 94 94 94 94 90 90
0 0 0 0 0 0 0 0 0 0 0 0 0 0 3 13 16 19 32 39 48 58 58 61 65 77 87 100 97 97 97 100 100 97 100 97 97 97 97 94 97 90 87 90
0 0 0 0 0 0 0 0 0 0 0 0 0 0 3 13 16 16 23 32 45 61 58 65 65 71 87 100 100 97 97 97 100 100 94 97 97 97 94 97 97 90 87 90
0 0 0 0 0 0 0 0 0 0 0 0 0 0 3 10 19 19 19 29 39 55 61 68 61 77 84 100 100 100 97 100 100 100 97 97 97 94 94 97 97 90 87 90
0 0 0 0 0 0 0 0 0 0 0 0 0 0 0 3 16 19 19 26 35 52 61 68 68 84 81 90 100 100 97 100 100 100 100 97 97 97 97 97 97 94 94 90
0 0 0 0 0 0 0 0 0 0 0 0 0 0 0 3 10 13 19 19 35 39 45 68 81 90 94 94 100 100 97 97 100 100 100 100 97 97 97 97 94 94 90 87
0 0 0 0 0 0 0 0 0 0 0 0 0 0 0 3 3 10 13 23 39 39 45 65 77 87 97 97 97 100 100 97 100 100 100 100 100 100 97 94 94 94 90 87
0 0 0 0 0 0 0 0 0 0 0 0 0 0 0 6 3 10 19 29 35 35 45 58 71 87 97 97 97 97 100 100 100 100 100 100 100 97 97 94 94 94 90 87
0 0 0 0 0 0 0 0 0 0 0 0 0 0 6 6 3 10 13 19 35 45 45 55 65 84 90 97 100 100 100 100 100 100 100 100 100 97 94 94 90 87 90 87
0 0 0 0 0 0 0 0 0 0 0 0 0 3 3 13 6 10 19 26 42 48 45 61 61 74 87 94 100 100 100 100 100 100 100 97 94 94 94 94 90 90 87 87
0 0 0 0 0 0 0 0 0 0 0 0 0 3 6 19 19 13 26 26 35 42 52 61 68 71 84 90 94 100 100 100 100 100 97 97 94 94 94 90 90 90 90 94
0 0 0 0 0 0 0 0 0 0 3 6 0 3 6 13 19 23 32 55 52 52 55 74 74 81 90 90 97 97 100 100 97 97 97 90 94 94 94 94 90 90 90 90
0 0 0 0 0 0 0 0 0 0 0 0 0 3 16 23 23 29 42 58 71 74 71 71 81 84 90 94 97 94 94 97 97 97 94 90 94 97 100 97 94 90 90 87
0 0 0 0 0 0 0 0 0 0 0 0 3 6 19 16 23 39 45 61 71 77 84 81 87 87 94 97 97 97 94 94 90 90 90 94 94 97 97 100 97 97 90 87
0 0 0 0 0 0 0 0 0 0 0 0 3 10 23 29 35 42 48 65 65 68 74 81 90 94 90 90 94 94 94 94 94 94 90 94 97 97 97 94 90 90 90 81
0 0 0 0 0 0 0 0 0 0 0 0 10 23 26 39 48 58 52 61 65 71 74 77 84 84 87 87 87 90 90 90 94 94 94 94 97 94 94 90 90 87 90 84
0 0 0 0 0 0 0 0 0 0 3 3 10 19 32 52 55 52 55 68 68 68 71 68 74 77 84 81 84 87 87 90 90 90 94 90 90 90 90 87 90 90 90 87
0 13 19 0 0 0 0 0 3 0 0 6 16 26 35 45 55 58 52 61 65 65 65 65 68 68 68 77 81 84 84 90 87 87 84 84 87 87 87 87 87 87 90 84
0 29 3 0 0 0 3 0 0 0 6 10 19 32 35 45 48 52 52 52 61 65 61 61 65 65 68 71 74 77 81 84 81 84 84 84 84 84 84 84 81 84 84 81
0 10 3 3 3 0 0 0 0 6 6 19 23 29 32 39 42 52 45 42 45 52 52 58 55 61 61 68 71 74 71 71 71 71 74 81 84 87 84 84 84 74 77 77
0 16 0 0 0 3 0 0 0 0 16 29 29 32 45 52 58 55 48 42 45 45 48 52 55 58 55 58 68 68 68 65 61 65 68 65 71 77 81 81 77 74 71 68
0 0 10 0 0 10 10 6 23 29 32 29 32 39 48 55 48 45 45 42 39 39 45 39 48 52 58 58 61 68 65 61 61 65 61 68 74 65 58 81 74 74 71 65
3 13 3 16 19 26 23 23 23 23 26 23 32 32 42 42 39 42 39 35 35 35 35 32 32 42 55 58 68 71 68 61 58 61 68 71 71 77 68 68 68 65 61 52
3 10 10 16 23 26 26 23 23 29 23 19 26 26 32 39 39 35 32 32 35 29 32 32 29 32 52 58 52 55 61 61 58 61 68 71 71 58 52 52 42 39 42 42
10 10 13 16 26 23 23 23 29 26 26 29 32 35 35 32 35 35 29 26 32 26 32 29 42 45 42 39 39 45 52 55 52 48 61 55 48 39 45 32 32 26 29 23
6 16 19 23 29 26 26 26 26 26 29 26 32 32 32 32 29 29 26 29 19 35 39 32 35 32 29 29 35 45 48 48 52 42 42 35 35 35 29 26 13 10 6 13
Height
5910 5913 5915 5918 5920 5922 5924 5923 5923 5923 5921 5923 5924 5924 5921 5919 5919 5917 5915 5914 5912 5910 5908 5906 5904 5903 5902 5900 5898 5897 5895 5894 5893 5891 5890 5889 5888 5887 5887 5886 5885 5885 5885 5884
5908 5910 5913 5915 5918 5920 5922 5922 5922 5922 5922 5923 5923 5923 5920 5920 5918 5918 5916 5914 5913 5911 5909 5907 5906 5904 5903 5901 5900 5898 5897 5895 5894 5893 5892 5891 5890 5889 5888 5887 5886 5886 5885 5885
5905 5909 5911 5913 5915 5917 5920 5921 5922 5921 5921 5922 5922 5921 5920 5918 5917 5916 5916 5914 5912 5911 5910 5908 5907 5906 5904 5903 5901 5900 5898 5897 5896 5894 5893 5892 5891 5890 5889 5888 5887 5886 5886 5885
5901 5905 5907 5909 5912 5915 5917 5919 5920 5919 5920 5920 5920 5919 5917 5916 5915 5914 5914 5912 5910 5910 5909 5909 5907 5906 5905 5903 5902 5901 5899 5898 5897 5895 5894 5893 5892 5891 5890 5889 5888 5887 5886 5886
5897 5901 5903 5905 5908 5911 5913 5914 5916 5917 5917 5917 5917 5916 5915 5914 5913 5911 5911 5910 5909 5909 5909 5908 5907 5906 5905 5904 5903 5901 5900 5899 5897 5896 5895 5894 5892 5892 5891 5890 5889 5887 5886 5886
5892 5896 5899 5901 5904 5906 5908 5910 5911 5913 5914 5914 5914 5915 5912 5912 5911 5910 5909 5908 5908 5908 5907 5907 5907 5905 5904 5903 5903 5901 5900 5899 5897 5896 5895 5894 5893 5892 5891 5890 5889 5888 5887 5886
5888 5891 5894 5896 5899 5901 5904 5906 5908 5909 5910 5910 5911 5911 5911 5910 5910 5907 5906 5906 5906 5906 5905 5904 5905 5905 5904 5903 5902 5901 5900 5898 5897 5896 5895 5894 5893 5892 5891 5890 5889 5888 5887 5886
5885 5888 5890 5892 5893 5896 5899 5903 5905 5906 5907 5906 5907 5907 5908 5907 5907 5906 5906 5904 5904 5904 5903 5903 5902 5903 5902 5902 5901 5900 5899 5898 5897 5896 5895 5894 5893 5892 5890 5890 5889 5888 5887 5886
5881 5884 5887 5887 5889 5891 5893 5897 5901 5903 5903 5903 5902 5903 5903 5900 5902 5902 5902 5902 5902 5901 5900 5901 5900 5900 5900 5900 5899 5898 5898 5897 5896 5895 5893 5892 5891 5890 5890 5888 5888 5887 5886 5884
5875 5878 5881 5883 5884 5886 5889 5892 5896 5897 5899 5900 5899 5898 5898 5895 5896 5896 5897 5899 5899 5898 5898 5898 5897 5897 5897 5897 5897 5896 5896 5895 5894 5893 5892 5891 5890 5888 5888 5887 5886 5885 5884 5883
5869 5872 5875 5878 5879 5881 5884 5886 5888 5891 5893 5895 5896 5896 5893 5893 5892 5892 5894 5894 5892 5893 5894 5894 5893 5893 5893 5893 5893 5894 5894 5893 5893 5891 5890 5889 5888 5887 5886 5885 5885 5884 5882 5881
5862 5865 5867 5871 5874 5876 5878 5880 5883 5885 5886 5888 5890 5891 5888 5888 5887 5886 5886 5887 5888 5889 5890 5889 5888 5889 5891 5891 5890 5891 5891 5890 5890 5889 5888 5887 5886 5885 5884 5883 5882 5881 5880 5878
5854 5858 5861 5865 5870 5870 5872 5874 5877 5880 5881 5883 5885 5886 5883 5882 5882 5880 5879 5882 5884 5884 5885 5885 5884 5884 5886 5886 5886 5886 5886 5886 5886 5886 5885 5884 5883 5882 5881 5880 5879 5878 5877 5875
5847 5850 5854 5859 5862 5864 5865 5866 5869 5872 5875 5877 5878 5878 5877 5875 5875 5875 5875 5876 5878 5880 5879 5879 5880 5879 5881 5882 5882 5882 5882 5882 5881 5881 5881 5880 5879 5878 5877 5876 5875 5875 5873 5872
5839 5842 5846 5849 5853 5856 5858 5860 5862 5865 5867 5869 5870 5871 5870 5868 5867 5868 5869 5870 5872 5873 5874 5875 5875 5874 5874 5875 5877 5877 5877 5877 5876 5876 5876 5875 5875 5874 5873 5872 5871 5870 5869 5868
5831 5834 5838 5841 5845 5849 5851 5854 5856 5858 5860 5862 5862 5862 5861 5861 5860 5860 5863 5864 5865 5866 5867 5869 5869 5870 5870 5871 5872 5872 5871 5871 5871 5871 5871 5870 5870 5869 5868 5867 5866 5865 5864 5863
5824 5827 5830 5834 5838 5840 5843 5847 5849 5851 5852 5854 5854 5854 5852 5852 5853 5853 5855 5856 5857 5859 5861 5862 5862 5864 5864 5865 5865 5865 5865 5865 5865 5864 5864 5864 5863 5863 5862 5861 5860 5859 5858 5857
5817 5819 5822 5826 5830 5831 5838 5839 5840 5841 5843 5843 5843 5843 5842 5844 5846 5846 5847 5849 5850 5853 5853 5852 5853 5855 5856 5857 5857 5858 5858 5857 5857 5857 5857 5857 5856 5856 5856 5855 5854 5854 5853 5851
5810 5812 5815 5818 5821 5823 5827 5828 5829 5831 5833 5833 5832 5833 5834 5835 5837 5838 5839 5840 5842 5844 5844 5843 5844 5846 5847 5848 5849 5849 5849 5849 5849 5849 5849 5848 5848 5848 5848 5848 5847 5846 5845 5844
5802 5804 5807 5810 5812 5815 5817 5817 5818 5821 5821 5821 5821 5822 5824 5826 5829 5829 5830 5830 5832 5833 5835 5835 5835 5837 5838 5839 5840 5841 5841 5841 5840 5840 5840 5839 5839 5839 5839 5839 5838 5838 5837 5836
5793 5795 5798 5801 5803 5805 5806 5806 5809 5812 5810 5810 5811 5812 5814 5816 5819 5820 5821 5822 5823 5823 5824 5826 5828 5829 5830 5830 5831 5831 5832 5831 5831 5831 5830 5830 5828 5830 5829 5829 5829 5829 5828 5827
5785 5787 5789 5792 5794 5797 5795 5797 5799 5799 5799 5800 5800 5802 5804 5807 5808 5810 5811 5813 5813 5813 5815 5817 5818 5818 5819 5820 5821 5822 5822 5822 5822 5821 5820 5820 5818 5820 5820 5820 5819 5819 5818 5818
5776 5778 5779 5782 5784 5785 5786 5787 5789 5789 5790 5791 5792 5794 5796 5797 5797 5799 5801 5802 5803 5804 5806 5807 5808 5808 5809 5809 5810 5810 5811 5811 5812 5812 5811 5810 5809 5809 5809 5809 5809 5808 5808 5807
5766 5767 5770 5772 5773 5775 5777 5778 5779 5780 5782 5782 5782 5783 5785 5786 5787 5788 5791 5792 5792 5794 5795 5796 5797 5797 5798 5798 5798 5798 5799 5800 5800 5800 5800 5800 5799 5799 5799 5798 5798 5798 5797 5797
5756 5758 5761 5763 5764 5765 5767 5769 5770 5771 5771 5770 5771 5773 5775 5777 5777 5778 5779 5780 5781 5782 5784 5785 5786 5786 5786 5786 5787 5787 5788 5788 5788 5788 5789 5789 5788 5788 5788 5787 5787 5787 5786 5786
5749 5750 5752 5753 5755 5757 5758 5760 5761 5761 5762 5762 5763 5764 5764 5765 5766 5767 5768 5769 5770 5771 5773 5773 5774 5775 5776 5775 5775 5775 5776 5777 5777 5777 5777 5777 5777 5777 5777 5776 5776 5774 5775 5775
Wind_Speed
15 14 13 12 11 12 13 14 12 10 9 6 6 7 9 10 11 11 10 11 13 13 13 13 14 14 14 15 14 13 12 12 12 11 10 9 9 8 7 6 5 4 3 2
16 16 14 13 14 15 14 14 12 10 9 7 8 9 9 10 9 11 11 10 11 11 11 13 13 14 14 14 14 13 12 11 11 11 10 10 9 9 8 7 6 5 4 3
19 17 16 16 16 15 15 15 13 13 11 10 10 12 12 11 10 9 10 10 10 10 11 11 11 13 13 13 14 14 12 11 11 11 11 10 9 9 8 7 6 6 5 4
20 19 19 18 17 17 17 15 16 15 13 13 13 15 15 14 13 11 12 11 9 9 10 9 10 11 12 12 12 13 12 11 11 11 11 11 10 9 9 8 7 7 6 6
21 20 21 20 19 18 19 18 18 17 16 16 16 16 14 16 15 11 10 11 9 8 9 9 9 10 11 11 11 12 12 12 11 11 11 11 10 9 9 8 8 7 7 6
23 21 21 20 20 21 20 19 18 17 18 19 18 16 17 16 16 16 14 12 13 9 9 10 9 9 10 10 11 11 11 11 10 11 11 11 10 9 8 8 8 8 8 8
22 23 23 22 22 22 21 18 17 18 20 21 18 17 18 17 18 17 16 14 14 12 11 11 9 10 10 10 10 11 11 11 11 10 11 11 10 9 8 8 8 8 8 8
20 21 22 24 24 23 21 20 20 20 20 20 18 18 17 16 19 19 17 17 15 13 14 12 11 10 10 11 11 11 11 12 12 11 11 11 11 10 9 8 8 9 9 9
19 19 19 22 22 22 22 22 20 22 21 22 21 19 20 19 20 18 17 17 16 14 14 14 13 12 11 11 11 11 11 12 12 12 12 12 12 11 10 9 9 10 10 10
22 22 19 20 23 24 24 22 21 22 23 23 22 21 22 20 18 16 17 18 17 16 16 16 14 13 13 12 11 12 12 13 13 13 13 13 14 13 10 10 11 11 11 11
24 25 23 22 23 22 23 24 24 25 24 22 22 23 21 23 22 19 18 20 18 16 16 16 16 16 15 14 13 13 14 14 14 14 14 14 14 13 12 12 12 13 13 13
27 27 26 25 24 22 23 23 24 26 26 25 24 25 24 24 22 20 21 19 19 19 19 19 19 19 18 16 16 16 16 16 15 15 15 15 15 15 14 14 14 14 14 14
29 28 27 25 24 24 24 24 24 25 25 25 25 27 26 26 23 23 21 20 21 21 22 22 22 21 19 18 19 19 19 18 17 17 17 17 17 17 16 16 15 15 16 16
31 31 30 26 24 23 24 24 24 24 25 25 26 26 27 28 27 26 25 23 24 25 26 25 24 23 22 21 21 22 23 22 20 19 19 19 19 19 19 18 18 18 18 18
31 32 32 30 27 26 23 22 24 26 27 25 26 26 29 29 27 28 25 25 26 28 27 26 26 26 24 23 23 24 25 24 23 22 21 20 21 21 21 20 20 20 20 21
32 33 32 32 30 28 28 26 24 26 26 27 29 30 31 31 30 29 28 28 29 30 29 28 27 27 27 27 27 27 27 27 26 25 23 22 22 22 22 22 22 22 22 23
32 33 33 32 29 29 31 29 28 28 28 29 31 32 34 34 35 33 31 33 32 32 31 31 31 30 30 30 30 30 30 29 29 28 27 25 24 23 23 23 24 24 24 24
32 32 32 31 29 32 30 30 32 33 32 31 32 35 37 38 38 38 36 35 34 34 34 33 32 31 31 32 33 32 32 32 31 30 29 28 27 26 26 26 26 26 26 26
31 32 32 30 29 30 29 31 33 34 35 34 34 36 38 38 37 39 40 38 35 34 34 33 33 32 33 34 34 35 35 34 33 32 31 30 30 29 28 29 29 28 29 29
30 32 32 31 29 29 30 33 34 35 36 38 38 39 39 37 38 40 39 37 37 36 35 34 32 33 34 34 35 36 36 35 34 34 33 32 32 32 31 31 32 31 31 32
30 32 32 32 32 32 34 36 36 36 38 38 38 37 37 36 37 39 39 38 38 37 36 36 36 35 35 36 36 36 36 36 36 36 36 34 34 34 33 33 33 34 34 34
30 30 32 33 32 35 38 39 40 39 40 38 36 36 35 36 37 37 39 39 38 37 37 37 37 37 37 37 37 37 37 37 38 38 38 37 36 36 36 36 35 35 36 36
32 32 33 34 36 37 38 39 39 39 39 39 37 37 37 37 37 38 39 40 40 39 38 38 39 39 39 39 39 39 38 38 38 39 39 39 39 38 38 38 38 37 37 37
34 34 35 35 35 37 39 40 39 38 39 38 37 37 37 37 38 39 40 41 41 40 39 39 39 40 40 40 40 40 40 40 40 39 39 39 40 40 40 40 39 38 37 38
34 34 35 36 38 37 38 39 38 38 38 37 37 37 38 39 40 40 41 41 41 41 40 40 40 40 40 40 39 39 40 39 39 39 39 39 40 40 39 40 39 39 38 37
33 35 36 37 38 38 37 38 38 40 39 39 38 38 38 38 39 39 40 41 41 41 41 41 41 41 41 42 41 41 41 40 40 41 40 40 40 40 40 40 40 39 38 38
Wind_Direction
218 218 222 223 231 237 247 259 253 261 271 269 267 279 301 322 332 339 348 359 3 11 17 19 20 22 22 22 23 23 27 30 32 33 33 35 36 33 30 31 30 20 11 3
223 228 229 225 226 236 243 257 267 265 279 278 265 273 277 296 315 320 336 346 350 360 9 13 15 17 17 18 19 19 21 24 26 28 28 29 30 30 30 31 26 21 16 6
230 231 234 234 234 234 239 248 258 263 267 273 271 275 274 273 282 297 313 322 335 346 0 8 11 12 10 12 14 15 17 19 20 20 20 19 21 26 28 30 27 21 19 7
232 230 237 235 233 232 239 243 246 250 257 267 264 267 272 274 277 290 302 304 320 336 345 357 1 4 4 7 9 10 12 13 15 14 12 10 13 19 24 22 18 17 16 7
230 231 234 234 233 234 237 236 239 245 249 253 260 266 272 280 278 282 289 296 299 316 326 339 350 353 355 359 2 4 5 5 6 7 7 7 8 9 11 12 10 7 3 359
227 228 235 235 235 235 237 237 241 244 250 253 253 257 263 268 279 280 276 288 289 296 308 318 330 341 343 347 351 354 355 357 357 359 2 4 3 1 2 3 2 1 359 357
233 230 230 232 232 235 237 235 242 247 251 254 252 250 258 266 274 279 281 283 288 286 290 299 313 326 329 332 337 341 344 347 349 347 348 350 351 352 352 352 354 354 353 350
236 239 237 237 236 234 233 231 238 247 255 262 260 257 253 252 261 270 273 276 281 288 290 293 303 308 314 320 324 328 336 338 338 338 336 336 336 335 336 340 341 343 344 343
229 238 244 246 245 239 232 228 237 250 258 266 265 258 249 239 250 261 260 265 276 282 283 284 291 293 301 310 315 317 323 327 330 331 331 330 329 324 320 326 334 335 336 333
228 230 228 239 244 238 233 232 235 240 249 256 265 265 264 260 253 251 254 260 273 274 277 281 283 286 290 293 303 309 312 316 320 323 322 323 323 321 316 319 323 326 327 328
228 232 228 228 238 241 239 233 231 234 236 247 258 262 265 270 268 262 258 263 266 268 267 269 273 276 282 289 295 302 303 306 311 314 315 316 320 324 320 314 314 316 320 321
229 232 232 230 235 238 240 235 235 238 237 237 248 257 262 267 270 263 250 249 256 260 262 265 266 272 281 285 288 292 294 297 302 304 308 309 310 313 314 312 312 312 313 314
231 231 232 233 235 235 238 235 234 236 242 243 247 256 261 263 259 259 258 254 257 261 259 264 270 270 273 278 282 283 286 290 294 295 299 302 303 303 303 303 305 307 309 310
235 233 231 229 232 238 241 239 233 232 237 243 246 253 258 261 259 255 254 253 256 259 262 264 268 269 271 274 277 280 282 284 289 293 294 296 297 298 298 296 297 299 301 304
237 236 234 230 229 232 242 244 241 238 233 235 244 249 255 260 257 255 256 258 256 258 259 262 265 268 268 271 275 279 281 283 285 288 290 291 294 295 296 297 296 294 295 298
239 238 237 235 233 233 237 237 242 245 241 239 241 246 249 251 255 255 255 255 256 257 261 262 263 264 267 271 273 276 278 277 279 281 283 283 287 289 291 292 293 293 293 295
242 241 240 240 238 238 238 237 240 243 244 242 243 245 249 249 250 253 255 256 257 261 262 264 265 265 265 269 271 272 273 275 276 277 278 278 281 284 287 288 290 290 290 292
244 242 243 243 242 242 241 241 240 241 241 242 244 245 248 252 254 255 256 255 259 260 260 261 263 263 263 264 267 268 271 271 271 273 275 276 277 280 281 282 284 286 286 287
245 245 243 243 245 247 244 242 238 239 240 241 244 247 250 251 254 256 258 260 259 261 260 259 261 262 263 265 267 270 271 271 270 270 271 272 274 275 278 280 280 283 283 284
241 244 242 240 242 245 244 243 240 239 240 240 243 245 249 251 252 256 261 262 262 260 258 259 262 262 264 266 267 270 271 273 273 271 271 272 273 274 275 277 278 280 282 281
241 241 241 241 243 247 246 246 245 243 244 243 245 246 251 253 254 257 260 262 262 260 259 262 262 263 265 266 266 269 270 271 272 273 272 271 272 274 275 275 276 278 280 281
240 240 241 240 241 245 245 247 247 247 249 247 250 251 253 256 257 258 260 262 263 262 262 263 263 265 266 267 267 269 269 270 271 272 273 274 275 274 275 275 275 275 277 280
235 237 239 238 240 244 245 248 252 252 252 253 254 257 258 259 257 258 259 260 261 261 262 262 263 264 265 265 267 268 269 271 272 272 272 274 275 274 273 273 273 274 276 278
236 237 239 242 245 247 249 252 254 256 256 255 258 257 256 259 260 259 259 261 261 262 263 263 263 265 266 266 267 269 269 270 271 272 272 272 273 274 274 275 277 277 278 279
240 240 241 244 247 249 250 254 256 257 259 263 265 262 261 261 261 262 261 262 261 263 264 264 264 264 264 267 267 269 269 270 271 271 271 272 273 274 275 275 277 277 278 280
242 243 244 247 250 252 256 258 261 261 263 265 266 266 266 264 262 262 262 262 263 264 264 264 264 266 266 266 268 269 268 270 271 271 271 271 272 272 274 276 276 276 277 278